Probability
0 0 0 0 0 0 0 0 0 0 1 2 3 4 7 9 8 11 17 22 23 21 19 18 19 20 23 23 19 18 18 16 14 15 15 15 14 14 17 18 18 16 15 16
0 0 0 0 0 0 0 0 0 0 1 3 4 5 8 9 9 12 16 19 20 20 19 18 19 21 23 24 23 22 21 19 17 16 15 14 14 14 15 15 15 14 15 16
0 0 0 0 0 0 0 0 0 0 1 3 4 6 8 9 10 13 15 16 18 20 20 19 20 22 24 26 26 26 25 23 20 17 14 12 12 14 14 13 13 15 16 16
0 0 0 0 0 0 0 0 0 1 2 3 4 6 6 7 10 12 13 14 16 19 20 19 20 23 26 27 28 29 28 26 23 20 17 14 13 15 16 15 16 19 20 18
0 0 0 0 0 0 0 0 0 1 2 4 5 6 5 5 9 12 14 15 16 17 18 18 19 23 26 28 28 28 29 28 27 26 23 20 18 17 18 19 20 21 20 19
0 0 0 1 1 1 0 0 1 1 3 4 6 7 8 8 11 14 16 17 17 17 17 17 19 22 26 27 26 27 29 30 30 29 27 24 21 18 18 19 19 19 17 17
0 0 0 1 2 1 0 1 1 2 3 5 6 9 12 14 15 16 17 18 17 16 17 19 20 23 26 26 26 27 29 31 31 29 27 24 22 19 17 16 16 15 15 14
1 1 1 1 1 1 2 2 3 3 3 5 7 10 13 16 16 16 17 17 18 18 20 22 23 25 27 27 27 27 29 31 31 30 28 26 23 19 17 15 13 12 11 11
2 2 2 1 1 3 4 4 4 3 2 4 6 8 11 14 16 16 16 17 18 19 22 25 25 24 25 27 27 27 29 32 32 31 30 27 22 17 15 13 11 9 8 7
4 4 3 2 1 3 5 5 4 2 3 5 7 8 11 15 16 16 15 16 16 19 24 26 24 22 23 26 28 28 29 31 31 30 28 25 19 14 12 11 9 7 7 7
4 5 5 3 2 2 4 4 3 2 4 7 9 10 13 17 17 15 15 16 16 18 23 24 23 20 22 25 27 28 27 27 27 25 23 20 16 12 10 8 7 6 6 6
5 6 5 3 1 1 2 3 2 2 4 7 9 11 14 17 17 15 17 17 17 18 20 22 20 18 19 22 25 26 24 22 21 19 19 17 13 10 7 5 4 3 4 4
7 6 4 2 1 1 2 1 0 1 4 7 9 11 14 16 15 15 16 17 18 18 20 20 19 17 18 19 21 23 21 18 16 15 15 15 12 9 7 5 3 2 1 1
7 6 4 2 1 2 2 1 1 2 5 8 10 12 14 14 14 14 15 16 17 18 19 20 20 18 17 17 18 19 18 15 13 13 13 13 12 10 9 7 5 4 2 1
5 5 4 4 4 4 4 4 5 7 9 11 12 13 13 14 14 15 15 15 16 17 18 19 20 19 17 15 14 15 14 13 12 11 10 11 11 10 9 7 7 6 4 3
3 3 3 5 6 5 6 8 10 12 13 14 14 14 14 15 16 16 15 14 15 15 16 17 18 18 17 13 11 11 11 10 10 10 9 9 10 10 8 7 6 6 6 5
2 2 3 5 6 6 7 9 12 14 14 15 16 16 16 17 18 16 13 13 14 14 14 14 15 16 16 13 10 10 10 9 9 10 11 10 9 9 7 6 6 6 6 6
2 2 2 3 4 5 5 7 10 13 14 15 17 17 17 17 17 16 14 13 13 14 14 12 11 12 13 12 11 10 11 10 9 9 10 9 8 7 6 6 6 6 6 6
1 0 1 1 2 3 3 5 8 11 12 12 14 16 16 16 16 15 14 12 11 12 12 11 8 9 10 10 10 9 9 9 8 7 7 8 8 6 6 7 7 7 7 7
1 1 0 0 2 3 3 5 7 10 10 10 12 13 14 13 13 13 12 9 8 8 9 9 8 8 9 8 7 8 8 7 6 7 8 8 8 7 8 9 9 8 8 8
3 2 1 0 1 2 3 3 5 7 8 8 9 9 8 7 7 8 8 6 4 4 5 6 7 8 7 6 6 8 8 7 8 9 9 9 8 8 10 12 11 9 9 9
3 3 2 1 0 1 1 1 2 4 6 6 5 4 2 2 2 3 4 3 2 1 2 2 3 4 4 4 6 8 8 8 9 9 9 7 7 7 9 10 9 8 9 9
1 2 2 2 1 0 0 0 1 3 5 4 3 1 1 1 0 1 1 1 0 0 0 0 1 1 2 3 5 7 6 6 8 8 7 6 6 5 5 5 5 6 7 7
0 0 1 2 2 1 0 0 1 4 5 4 2 1 1 2 1 1 1 0 0 0 0 0 0 0 1 2 3 4 3 3 5 6 6 4 4 4 4 3 3 4 6 6
0 0 1 2 2 1 1 1 1 3 4 3 1 0 1 2 2 2 2 1 0 0 0 0 0 0 0 1 1 1 1 1 2 4 4 3 3 4 3 3 3 4 4 5
0 0 0 1 2 1 1 2 1 1 3 2 1 0 0 1 2 3 2 1 0 0 0 0 0 0 0 0 0 0 0 0 2 3 3 3 3 3 3 3 3 3 3 4
0 0 0 0 1 1 1 2 1 1 2 2 1 0 0 0 1 3 2 1 0 0 0 0 0 0 0 0 0 0 0 0 1 1 1 2 3 3 3 3 3 3 3 3
Wind_Speed
8 7 7 7 7 8 10 11 11 8 7 4 3 3 3 3 2 2 1 1 1 1 0 1 2 2 2 2 3 3 4 4 3 3 2 2 2 2 3 3 3 3 3 3
10 9 9 10 9 10 10 10 11 10 8 3 2 2 3 3 3 3 2 2 1 1 1 1 2 2 2 3 3 3 4 3 2 2 2 2 2 2 2 2 3 3 3 3
10 8 11 12 9 10 9 8 9 10 6 3 4 4 4 4 4 3 2 2 2 1 1 1 2 2 3 3 3 3 3 3 3 2 2 2 2 2 2 3 3 3 3 3
8 9 13 5 3 7 9 9 8 7 6 5 4 4 4 4 3 2 2 2 2 2 1 1 1 1 2 2 3 3 3 3 2 2 2 3 3 2 3 3 3 3 3 3
8 11 11 7 4 6 8 9 6 6 5 3 2 3 4 3 2 2 2 2 1 1 1 1 1 1 2 2 3 3 3 3 3 3 3 3 3 2 2 3 3 3 3 3
10 12 12 4 2 3 8 9 3 4 5 5 5 6 2 1 2 2 1 1 1 1 0 1 1 2 2 2 2 2 2 3 3 3 3 3 3 2 2 2 3 3 2 3
12 12 8 0 2 4 9 4 2 3 4 6 6 5 2 0 1 1 1 1 1 1 1 1 1 2 2 2 2 1 1 2 2 3 3 3 3 2 2 2 2 2 2 2
9 12 6 3 3 4 5 5 4 4 4 5 4 1 1 1 1 2 2 2 1 1 1 1 2 2 2 2 2 1 2 2 2 3 3 2 2 2 2 3 3 3 3 3
6 4 2 1 2 3 5 5 4 4 4 4 4 4 3 3 3 3 2 2 2 2 2 2 2 2 2 2 1 2 2 2 2 2 2 1 2 2 2 3 3 3 3 3
6 3 1 2 3 4 4 5 5 5 4 5 5 5 4 3 3 3 3 3 3 3 3 3 2 2 2 2 2 2 2 2 2 2 2 2 2 2 2 2 2 2 3 3
8 4 4 3 4 4 4 4 4 4 4 5 5 5 4 4 4 4 4 4 4 3 3 3 3 3 3 2 3 3 3 3 3 3 2 2 2 1 2 1 1 3 3 3
6 3 6 5 5 5 5 5 4 4 5 5 5 5 5 4 4 4 4 4 4 4 4 4 4 3 3 3 3 4 4 4 3 3 2 2 2 1 1 2 2 3 3 4
7 7 7 7 6 7 6 6 5 5 5 5 5 5 5 5 5 5 4 5 5 4 4 4 4 3 3 3 3 5 4 4 3 3 2 2 2 2 2 2 3 4 3 2
7 7 7 6 6 6 6 6 6 5 5 5 4 4 4 4 5 5 5 5 4 4 4 4 4 4 3 3 4 5 5 4 4 3 3 3 3 3 2 2 2 1 3 4
6 7 7 7 6 6 5 5 5 5 4 4 4 4 5 5 5 5 5 5 4 4 4 4 5 4 3 4 5 6 5 3 3 3 3 3 3 3 2 2 1 1 1 3
7 7 6 6 6 6 6 6 5 5 4 4 4 4 5 5 4 4 4 4 5 5 4 4 4 4 4 4 5 5 4 4 4 4 3 3 3 3 2 2 2 2 1 1
7 7 6 6 6 5 5 5 5 5 4 4 4 4 4 4 4 4 4 4 4 4 4 4 4 3 4 4 5 4 4 4 6 5 3 2 2 3 3 3 2 2 1 2
7 7 7 6 5 5 5 5 4 4 4 4 4 4 4 4 4 3 3 4 3 4 4 4 4 4 4 4 4 4 3 3 4 3 2 2 2 3 3 3 2 2 1 3
5 5 5 5 5 4 4 4 4 3 3 3 3 3 3 3 2 2 2 3 3 4 3 3 2 4 5 4 4 5 4 4 4 3 3 3 4 3 2 2 2 2 2 1
4 4 4 4 3 3 2 2 1 1 1 2 2 2 2 2 2 2 2 3 3 2 2 2 4 5 5 4 5 5 4 4 4 3 3 3 3 3 3 3 3 2 1 1
4 3 3 2 2 2 1 1 0 0 0 1 2 1 1 1 2 2 2 3 2 2 3 3 4 3 3 2 5 5 4 3 3 3 3 3 3 2 2 3 2 2 2 2
4 3 2 2 1 1 1 0 0 0 1 1 1 1 1 1 1 1 2 2 1 1 3 3 3 1 1 4 5 4 4 3 3 3 3 3 2 2 2 3 3 2 2 2
3 3 2 2 1 1 1 1 0 1 1 1 1 1 0 0 1 1 1 1 1 0 2 2 1 1 2 5 4 4 3 3 3 3 3 2 2 2 2 2 2 2 2 1
3 3 3 2 2 1 1 2 2 1 1 1 1 1 0 0 1 1 1 1 1 1 2 0 2 1 4 4 3 3 2 3 3 2 2 1 1 2 2 2 1 1 1 1
3 3 3 2 1 1 1 1 1 1 0 1 1 1 0 0 1 1 1 1 2 1 2 1 3 4 5 3 2 2 2 1 1 1 2 1 2 1 1 1 1 1 1 1
3 3 2 2 2 2 1 0 0 0 0 0 0 0 0 0 1 0 0 1 1 1 2 1 1 3 3 2 2 2 2 1 2 2 2 2 2 2 2 1 1 1 1 1
3 2 2 2 2 2 1 1 1 1 1 1 1 1 1 1 1 1 1 1 1 1 1 2 2 1 2 2 1 1 1 1 1 1 1 1 1 1 2 2 2 1 1 1
Wind_Direction
259 264 258 255 251 242 249 267 278 284 280 279 269 255 234 212 203 216 202 204 216 244 169 193 192 200 215 218 207 203 200 201 208 221 227 232 232 233 233 230 232 236 244 247
242 244 248 251 252 249 249 258 264 269 272 290 271 240 222 209 206 221 224 232 243 266 259 219 198 204 212 215 205 204 206 203 194 212 232 237 239 237 240 244 244 238 240 249
246 238 246 242 243 249 251 250 261 269 282 275 247 235 239 224 219 228 230 241 248 251 253 259 229 208 217 213 207 200 198 195 186 193 232 240 239 239 247 247 243 245 249 251
251 239 247 250 244 257 262 260 262 273 278 272 268 256 249 227 229 235 237 244 249 248 254 254 264 206 201 194 195 193 186 189 199 198 233 246 235 232 245 249 254 253 254 256
247 245 248 231 222 243 256 262 260 266 268 267 277 250 225 213 251 252 242 245 252 255 263 268 270 210 182 193 194 194 191 195 201 205 222 239 237 229 244 250 253 252 244 247
245 255 256 249 197 242 253 248 239 254 247 240 240 254 243 190 235 236 237 231 232 249 267 213 226 202 195 199 206 213 209 208 205 203 217 230 234 233 237 244 249 258 256 257
246 253 255 284 123 225 245 298 347 269 243 234 249 289 352 180 197 197 207 211 238 253 261 238 213 202 207 212 226 245 225 203 190 199 207 212 220 229 239 249 257 257 256 251
243 250 245 108 182 254 324 342 312 283 257 253 268 268 205 175 185 192 201 202 227 259 279 254 216 205 210 220 236 231 209 198 195 213 223 195 199 221 236 249 244 241 245 250
254 271 24 47 289 325 321 308 302 285 270 251 242 235 223 213 214 214 217 217 222 233 246 234 216 211 226 234 237 226 219 212 209 215 215 210 216 224 222 223 246 252 250 258
257 235 248 263 284 290 295 292 292 282 267 247 244 236 229 226 220 218 221 221 221 226 227 223 220 226 235 224 222 215 219 226 215 212 205 201 238 240 250 249 257 262 266 272
248 258 254 246 288 295 292 293 289 276 261 251 240 233 228 227 224 222 223 222 225 233 234 227 229 233 232 221 220 225 225 230 233 224 212 220 227 258 255 271 290 270 279 284
265 268 274 279 289 293 280 276 275 272 265 252 239 230 228 228 225 224 224 224 226 230 234 223 223 229 229 223 225 227 226 230 237 231 221 228 219 214 165 237 189 214 255 282
294 295 293 288 284 283 273 266 261 254 254 253 245 230 226 227 224 223 225 226 227 231 231 221 216 220 224 226 229 232 232 233 246 241 231 232 232 239 227 189 191 194 208 230
283 281 278 277 281 283 274 268 260 254 252 249 241 231 223 224 220 222 226 227 225 227 228 228 222 220 222 228 231 232 234 220 234 238 241 241 241 242 242 237 215 193 177 176
280 280 283 287 285 281 273 262 259 253 243 239 236 229 222 222 220 223 222 219 218 221 225 229 229 227 227 233 236 235 236 233 235 244 242 239 242 241 241 242 239 204 168 155
288 286 284 282 280 279 272 262 257 255 250 245 238 232 230 227 216 215 214 215 222 227 226 233 235 233 233 236 240 235 227 214 243 251 241 231 234 240 238 237 234 223 207 159
288 287 289 289 285 281 276 272 267 263 256 253 246 231 222 216 210 212 215 215 223 231 234 236 236 235 235 240 249 247 240 202 208 236 242 240 240 243 241 240 238 235 213 124
285 287 287 287 287 281 280 276 270 267 257 254 244 222 215 216 217 215 221 219 219 230 237 236 241 245 238 243 250 256 248 231 230 231 232 238 252 251 248 242 236 234 224 156
297 299 297 292 293 289 283 280 281 269 253 241 231 221 219 222 217 205 214 221 227 240 253 251 244 244 238 242 250 235 238 233 230 227 228 211 227 237 240 243 243 234 227 225
320 311 304 300 296 288 282 288 298 288 251 217 196 193 200 210 204 194 203 229 244 274 271 261 246 246 242 229 238 240 231 226 228 231 231 236 240 243 242 241 236 230 220 225
342 335 321 313 309 309 308 306 288 285 163 157 147 157 181 197 198 203 226 237 239 270 263 231 239 247 246 248 229 237 228 228 225 222 227 236 244 249 251 252 239 225 220 217
349 345 339 337 340 344 345 339 23 101 90 87 93 97 117 156 203 227 250 273 270 252 251 237 237 253 290 273 243 234 222 222 225 225 229 237 245 249 244 243 243 237 226 220
355 0 359 358 6 18 10 10 51 128 114 112 111 85 61 312 264 259 260 275 274 215 253 268 5 107 247 249 245 241 233 230 232 234 233 236 242 250 256 254 254 242 221 212
3 12 13 8 17 42 40 27 29 46 75 144 125 113 137 206 247 268 307 58 22 336 273 350 97 185 253 252 247 246 247 244 242 246 244 240 243 244 255 261 265 248 200 204
8 4 14 8 345 1 49 41 44 48 65 81 91 109 203 300 305 331 5 29 56 270 279 160 175 217 243 256 262 271 265 264 278 284 265 248 250 253 241 232 229 238 221 207
1 354 2 343 346 333 314 272 249 251 359 59 70 71 58 16 326 355 351 8 35 326 312 319 241 222 234 251 258 264 265 223 199 215 228 237 237 236 218 196 193 213 206 196
351 354 348 340 336 322 313 300 302 323 331 336 346 16 31 20 348 355 342 333 338 315 314 312 301 283 280 282 287 288 272 245 228 235 246 241 232 223 209 196 189 174 178 175